• In United Kingdom
  • List of Countries
  • For 7 days
  • Water Temperature
  • Satellite Maps
  • Weather Map
  • Weather Widgets
  • user-avatar
    Login

    Hourly Weather Rustawi

    Today, 17 August, Thursday

    Time Temperature Precipitation Wind Pressure Humidity
    00:00 +23°C° 0 mm 1 mps 725 mmHg 48%
    01:00 +23°C° 0.2 mm 1 mps 725 mmHg 51%
    02:00 +23°C° 0.2 mm 1 mps 725 mmHg 54%
    03:00 +21°C° 0.2 mm 2 mps 725 mmHg 57%
    04:00 +21°C° 0.3 mm 2 mps 725 mmHg 61%
    05:00 +20°C° 0.3 mm 2 mps 725 mmHg 65%
    06:00 +20°C° 0.3 mm 2 mps 725 mmHg 69%
    07:00 +23°C° 0.1 mm 2 mps 725 mmHg 63%
    08:00 +24°C° 0.1 mm 2 mps 725 mmHg 58%
    09:00 +26°C° 0.1 mm 2 mps 725 mmHg 52%
    10:00 +27°C° 0 mm 2 mps 725 mmHg 47%
    11:00 +29°C° 0 mm 3 mps 725 mmHg 41%
    12:00 +31°C° 0 mm 3 mps 725 mmHg 36%
    13:00 +31°C° 0.1 mm 3 mps 724 mmHg 37%
    14:00 +31°C° 0.1 mm 3 mps 724 mmHg 38%
    15:00 +31°C° 0.1 mm 3 mps 724 mmHg 38%
    16:00 +30°C° 0.2 mm 3 mps 724 mmHg 43%
    17:00 +29°C° 0.2 mm 2 mps 724 mmHg 47%
    18:00 +27°C° 0.2 mm 2 mps 724 mmHg 51%
    19:00 +26°C° 0 mm 2 mps 724 mmHg 55%
    20:00 +25°C° 0 mm 2 mps 724 mmHg 59%
    21:00 +24°C° 0 mm 2 mps 725 mmHg 62%
    22:00 +23°C° 0.2 mm 2 mps 725 mmHg 65%
    23:00 +23°C° 0.2 mm 2 mps 725 mmHg 67%

    Tomorrow, 18 August, Friday

    Time Temperature Precipitation Wind Pressure Humidity
    00:00 +21°C° 0.2 mm 2 mps 725 mmHg 70%
    01:00 +21°C° 0.1 mm 2 mps 725 mmHg 72%
    02:00 +20°C° 0.1 mm 2 mps 725 mmHg 73%
    03:00 +20°C° 0.1 mm 2 mps 725 mmHg 75%
    04:00 +20°C° 0.1 mm 2 mps 725 mmHg 75%
    05:00 +21°C° 0.1 mm 1 mps 725 mmHg 75%
    06:00 +21°C° 0.1 mm 1 mps 725 mmHg 75%
    07:00 +23°C° 0.1 mm 1 mps 725 mmHg 66%
    08:00 +25°C° 0.1 mm 1 mps 725 mmHg 57%
    09:00 +27°C° 0.1 mm 1 mps 725 mmHg 48%
    10:00 +29°C° 0 mm 2 mps 724 mmHg 43%
    11:00 +31°C° 0 mm 2 mps 724 mmHg 38%
    12:00 +32°C° 0 mm 2 mps 724 mmHg 32%
    13:00 +34°C° 0 mm 3 mps 724 mmHg 31%
    14:00 +35°C° 0 mm 3 mps 724 mmHg 29%
    15:00 +36°C° 0 mm 3 mps 723 mmHg 27%
    16:00 +35°C° 0 mm 3 mps 724 mmHg 29%
    17:00 +34°C° 0 mm 2 mps 724 mmHg 32%
    18:00 +32°C° 0 mm 2 mps 724 mmHg 34%
    19:00 +30°C° 0 mm 2 mps 725 mmHg 37%
    20:00 +28°C° 0 mm 2 mps 725 mmHg 41%
    21:00 +27°C° 0 mm 2 mps 726 mmHg 45%
    22:00 +26°C° 0 mm 2 mps 726 mmHg 47%
    23:00 +25°C° 0 mm 2 mps 726 mmHg 50%

    Day after tomorrow, 19 August, Saturday

    Time Temperature Precipitation Wind Pressure Humidity
    00:00 +24°C° 0 mm 2 mps 726 mmHg 53%
    01:00 +23°C° 0 mm 2 mps 727 mmHg 54%
    02:00 +23°C° 0 mm 2 mps 727 mmHg 55%
    03:00 +21°C° 0 mm 2 mps 727 mmHg 57%
    04:00 +21°C° 0 mm 2 mps 727 mmHg 57%
    05:00 +21°C° 0 mm 2 mps 727 mmHg 57%
    06:00 +22°C° 0 mm 1 mps 727 mmHg 57%
    07:00 +24°C° 0 mm 1 mps 727 mmHg 49%
    08:00 +27°C° 0 mm 1 mps 727 mmHg 41%
    09:00 +29°C° 0 mm 1 mps 727 mmHg 33%
    10:00 +30°C° 0 mm 2 mps 727 mmHg 30%
    11:00 +32°C° 0 mm 2 mps 727 mmHg 27%
    12:00 +34°C° 0 mm 3 mps 726 mmHg 24%
    13:00 +35°C° 0 mm 3 mps 726 mmHg 23%
    14:00 +36°C° 0 mm 4 mps 726 mmHg 22%
    15:00 +36°C° 0 mm 4 mps 726 mmHg 20%
    16:00 +36°C° 0 mm 4 mps 726 mmHg 22%
    17:00 +35°C° 0 mm 3 mps 726 mmHg 23%
    18:00 +34°C° 0 mm 3 mps 726 mmHg 24%
    19:00 +30°C° 0 mm 3 mps 727 mmHg 27%
    20:00 +28°C° 0 mm 3 mps 727 mmHg 29%
    21:00 +26°C° 0 mm 3 mps 728 mmHg 32%
    22:00 +25°C° 0 mm 3 mps 728 mmHg 33%
    23:00 +24°C° 0 mm 2 mps 728 mmHg 34%

    20 August, Sunday

    Time Temperature Precipitation Wind Pressure Humidity
    00:00 +23°C° 0 mm 2 mps 728 mmHg 35%
    01:00 +23°C° 0 mm 2 mps 728 mmHg 37%
    02:00 +21°C° 0 mm 2 mps 728 mmHg 38%
    03:00 +21°C° 0 mm 2 mps 728 mmHg 40%
    04:00 +21°C° 0 mm 2 mps 728 mmHg 41%
    05:00 +20°C° 0 mm 2 mps 728 mmHg 41%
    06:00 +20°C° 0 mm 2 mps 728 mmHg 42%
    07:00 +24°C° 0 mm 1 mps 727 mmHg 36%
    08:00 +27°C° 0 mm 1 mps 727 mmHg 30%
    09:00 +29°C° 0 mm 1 mps 727 mmHg 24%
    10:00 +31°C° 0 mm 2 mps 727 mmHg 22%
    11:00 +32°C° 0 mm 2 mps 726 mmHg 21%
    12:00 +34°C° 0 mm 3 mps 726 mmHg 19%
    13:00 +35°C° 0 mm 3 mps 726 mmHg 18%
    14:00 +36°C° 0 mm 4 mps 725 mmHg 17%
    15:00 +37°C° 0 mm 4 mps 725 mmHg 17%
    16:00 +35°C° 0 mm 3 mps 725 mmHg 18%
    17:00 +34°C° 0 mm 3 mps 725 mmHg 20%
    18:00 +33°C° 0 mm 3 mps 725 mmHg 21%
    19:00 +30°C° 0 mm 2 mps 726 mmHg 24%
    20:00 +28°C° 0 mm 2 mps 726 mmHg 26%
    21:00 +25°C° 0 mm 2 mps 727 mmHg 28%
    22:00 +25°C° 0 mm 2 mps 727 mmHg 29%
    23:00 +24°C° 0 mm 2 mps 727 mmHg 30%

    21 August, Monday

    Time Temperature Precipitation Wind Pressure Humidity
    00:00 +23°C° 0 mm 2 mps 727 mmHg 31%
    01:00 +23°C° 0 mm 2 mps 727 mmHg 33%
    02:00 +21°C° 0 mm 2 mps 727 mmHg 34%
    03:00 +21°C° 0 mm 2 mps 726 mmHg 36%
    04:00 +21°C° 0 mm 2 mps 726 mmHg 37%
    05:00 +21°C° 0 mm 2 mps 726 mmHg 38%
    06:00 +21°C° 0 mm 2 mps 726 mmHg 40%
    07:00 +24°C° 0 mm 1 mps 726 mmHg 35%
    08:00 +27°C° 0 mm 1 mps 726 mmHg 31%
    09:00 +30°C° 0 mm 1 mps 726 mmHg 26%
    10:00 +32°C° 0 mm 1 mps 726 mmHg 24%
    11:00 +34°C° 0 mm 2 mps 725 mmHg 22%
    12:00 +36°C° 0 mm 2 mps 725 mmHg 20%
    13:00 +36°C° 0 mm 3 mps 725 mmHg 19%
    14:00 +37°C° 0 mm 3 mps 724 mmHg 18%
    15:00 +38°C° 0 mm 3 mps 724 mmHg 18%
    16:00 +37°C° 0 mm 3 mps 724 mmHg 19%
    17:00 +36°C° 0 mm 3 mps 724 mmHg 21%
    18:00 +35°C° 0 mm 2 mps 724 mmHg 22%
    19:00 +31°C° 0 mm 2 mps 725 mmHg 25%
    20:00 +29°C° 0 mm 2 mps 725 mmHg 27%
    21:00 +27°C° 0 mm 2 mps 725 mmHg 30%
    22:00 +26°C° 0 mm 2 mps 726 mmHg 30%
    23:00 +25°C° 0 mm 2 mps 726 mmHg 31%

    22 August, Tuesday

    Time Temperature Precipitation Wind Pressure Humidity
    00:00 +24°C° 0 mm 2 mps 726 mmHg 31%
    01:00 +24°C° 0 mm 2 mps 726 mmHg 32%
    02:00 +23°C° 0 mm 2 mps 725 mmHg 33%
    03:00 +23°C° 0 mm 2 mps 725 mmHg 34%
    04:00 +23°C° 0 mm 2 mps 726 mmHg 34%
    05:00 +23°C° 0 mm 2 mps 726 mmHg 35%
    06:00 +23°C° 0 mm 2 mps 726 mmHg 36%
    07:00 +25°C° 0 mm 1 mps 726 mmHg 32%
    08:00 +28°C° 0 mm 1 mps 725 mmHg 28%
    09:00 +31°C° 0 mm 1 mps 725 mmHg 24%
    10:00 +32°C° 0 mm 2 mps 725 mmHg 22%
    11:00 +35°C° 0 mm 2 mps 725 mmHg 21%
    12:00 +36°C° 0 mm 3 mps 724 mmHg 19%
    13:00 +37°C° 0 mm 3 mps 724 mmHg 18%
    14:00 +37°C° 0 mm 3 mps 723 mmHg 17%
    15:00 +38°C° 0 mm 3 mps 723 mmHg 17%
    16:00 +37°C° 0 mm 3 mps 723 mmHg 18%
    17:00 +36°C° 0 mm 3 mps 723 mmHg 20%
    18:00 +35°C° 0 mm 2 mps 723 mmHg 22%
    19:00 +32°C° 0 mm 2 mps 724 mmHg 24%
    20:00 +29°C° 0 mm 2 mps 724 mmHg 26%
    21:00 +27°C° 0 mm 2 mps 725 mmHg 29%
    22:00 +26°C° 0 mm 2 mps 725 mmHg 29%
    23:00 +25°C° 0 mm 2 mps 725 mmHg 30%
    Show more